This is the latest recevied weather packets stored in our database for station/object LA9TLA-1. If no packets are shown the sender has not sent any weather packets the latest 10 day(s).
| Time | Temp. | Humidity | Pressure | Rain* | Wind** | Luminosity | Snow |
|---|---|---|---|---|---|---|---|
| 1788546902 | 12.78° C | 99% | 988.4 hPa | 1.02 mm | - | - | - |
| 1788539700 | 12.22° C | 99% | 987.4 hPa | 10.92 mm | - | - | - |
| 1788537900 | 13.33° C | 99% | 987.5 hPa | 4.57 mm | - | - | - |
| 1788536100 | 15° C | 99% | 987.2 hPa | 0 mm | - | - | - |
| 1788534304 | 15° C | 99% | 987.3 hPa | 0 mm | - | - | - |
| 1788532500 | 15° C | 99% | 987.3 hPa | 0 mm | - | - | - |
| 1788528903 | 15.56° C | 99% | 987.4 hPa | 0 mm | - | - | - |
| 1788527102 | 17.22° C | 99% | 987.5 hPa | 0 mm | - | - | - |
| 1788521702 | 16.67° C | 99% | 988.1 hPa | 0.25 mm | - | - | - |
| 1788518102 | 15.56° C | 99% | 989 hPa | 0.51 mm | - | - | - |
| 1788514502 | 16.67° C | 81% | 989.3 hPa | 0 mm | - | - | - |
| 1788510902 | 18.33° C | 78% | 989.7 hPa | 0 mm | - | - | - |
| 1788509101 | 16.67° C | 99% | 990 hPa | 0 mm | - | - | - |
| 1788507300 | 16.67° C | 99% | 990.4 hPa | 0 mm | - | - | - |
| 1788505502 | 16.67° C | 99% | 990.5 hPa | 0 mm | - | - | - |
| 1788503701 | 15.56° C | 99% | 990.7 hPa | 0 mm | - | - | - |
| 1788501902 | 12.78° C | 99% | 991.2 hPa | 0 mm | - | - | - |
| 1788500100 | 12.22° C | 99% | 991.5 hPa | 0 mm | - | - | - |
| 1788498302 | 12.22° C | 99% | 991.7 hPa | 0 mm | - | - | - |
| 1788496501 | 11.67° C | 99% | 991.8 hPa | 0 mm | - | - | - |
| 1788492904 | 12.22° C | 99% | 992.2 hPa | 0 mm | - | - | - |
| 1788491102 | 12.78° C | 99% | 992.4 hPa | 0 mm | - | - | - |
| 1788487502 | 13.89° C | 99% | 993.1 hPa | 0 mm | - | - | - |
| 1788471301 | 13.89° C | 99% | 993.3 hPa | 0 mm | - | - | - |
| 1788467700 | 13.89° C | 99% | 992.5 hPa | 0 mm | - | - | - |
* Rain latest hour (hover to see other rain measurements)
** Current wind speed in m/s (hover to see current wind gust speed)